Home   Weather   Qatif   Past weeks

Flag for Saudi Arabia Past Weather in Qatif, Saudi Arabia — Yesterday and Last 2 Weeks

Now
79 °F

Clear.


Feels Like: 79 °F
Forecast: 72 / 95 °F
Wind: 7 mph from North

Location: King Fahd International Airport

Current Time: Apr 26, 2017 at 8:59:26 pm

Latest Report: Apr 26, 2017 at 8:00 pm


Visibility: 10 mi

Pressure: 29.83 "Hg

Humidity: 39%

Dew Point: 52 °F

Location of QatifLocation

Past Weather in Qatif — Graph

°F

Qatif Temperature Yesterday

Maximum temperature yesterday: 97 °F (at 11:00 am)
Minimum temperature yesterday: 70 °F (at 4:00 am)
Average temperature yesterday: 83 °F

High & Low Weather Summary for the Past Weeks

 TemperatureHumidityPressure
High106 °F (Apr 12, 2:00 pm)74% (Apr 13, 5:00 am)29.95 "Hg (Apr 13, 5:00 am)
Low64 °F (Apr 23, 4:00 am)6% (Apr 23, 3:00 pm)29.68 "Hg (Apr 24, 4:00 pm)
Average83 °F33%29.82 "Hg
* Reported Apr 11 8:00 pm — Apr 26 8:00 pm, Qatif, Weather by CustomWeather, © 2017

Note: Actual official high and low records may vary slightly from our data, if they occured in-between our weather recording intervals... More about our weather records

Advertising

Qatif Weather History for the Previous 24 Hours

Scroll right to see more
 ConditionsComfort  
Time TempWeatherWind HumidityBarometerVisibility
8:00 pm
Wed, Apr 26
79 °FClear.7 mph39%29.83 "Hg10 mi
7:00 pm82 °FClear.10 mph35%29.83 "Hg10 mi
6:00 pm86 °FSunny.12 mph31%29.80 "Hg10 mi
5:00 pm88 °FSunny.15 mph29%29.80 "Hg10 mi
4:00 pm90 °FSunny.16 mph24%29.80 "Hg10 mi
3:00 pm93 °FSunny.16 mph20%29.80 "Hg10 mi
2:00 pm97 °FSunny.16 mph19%29.80 "Hg10 mi
1:00 pm95 °FSunny.18 mph20%29.83 "Hg10 mi
12:00 pm95 °FClear.14 mph19%29.83 "Hg5 mi
11:00 am91 °FClear.18 mph21%29.86 "Hg4 mi
10:00 am90 °FClear.20 mph24%29.86 "Hg4 mi
9:00 am86 °FLow level haze.21 mph24%29.86 "Hg3 mi
8:00 am81 °FLow level haze.21 mph34%29.86 "Hg2 mi
7:34 am81 °FLow level haze.21 mph32%29.86 "Hg3 mi
7:00 am77 °FSunny.18 mph44%29.86 "Hg5 mi
6:00 am73 °FSunny.12 mph47%29.80 "Hg5 mi
5:00 am75 °FClear.9 mph47%29.77 "Hg10 mi
4:00 am73 °FClear.9 mph53%29.77 "Hg5 mi
3:00 am73 °FClear.8 mph57%29.77 "Hg5 mi
2:00 am75 °FClear.7 mph61%29.77 "Hg5 mi
1:00 am75 °FClear.6 mph61%29.77 "Hg5 mi
12:00 am77 °FClear.10 mph51%29.77 "Hg10 mi
11:00 pm
Tue, Apr 25
77 °FClear.14 mph36%29.77 "Hg10 mi
10:00 pm77 °FClear.2 mph36%29.77 "Hg10 mi
9:00 pm81 °FClear.No wind32%29.77 "Hg10 mi
8:00 pm82 °FClear.3 mph30%29.77 "Hg10 mi
Weather by CustomWeather, © 2017

See weather overviewHow to use our weather pages